{"data":{"norad_id":45162,"intl_designator":"2020-008AH","name":"ONEWEB-0059","alt_names":[],"object_type":"PAYLOAD","status":"ACTIVE","operator":null,"country":"UK","launch_date":"2020-02-06","launch_site_code":"TYMSC","launch_vehicle":null,"mission":null,"orbit_class":"UNKNOWN","rcs_meters":null,"size_class":null,"mass_kg":null,"dimensions":null,"purposes":["comms"],"wikipedia_slug":null,"has_3d_model":false,"image_url":null,"decayed_at":null,"tle_current":{"epoch":"2026-05-25T03:32:15.067104Z","epoch_age_seconds":76462,"freshness":"FRESH","line1":"1 45162U 20008AH  26145.14739661  .00000287  00000+0  78540-3 0  9996","line2":"2 45162  87.8856  40.8649 0001903  73.6072 286.5264 13.10371175305304","mean_motion":13.10371175,"eccentricity":0.0001903,"inclination_deg":87.8856,"raan_deg":40.8649,"arg_perigee_deg":73.6072,"mean_anomaly_deg":286.5264,"bstar":0.0007854,"rev_number":30530,"period_min":109.89252720703,"perigee_km":1220.2772461402,"apogee_km":1223.1697530463,"semimajor_km":7599.8604995932,"source":"CELESTRAK","updated_at":"2026-05-25T13:38:22.339933Z"}}}